Wind_Speed
16 16 15 14 13 12 11 8 7 6 5 3 3 2 1 2 2 3 4 5 6 7 8 9 9 9 9 9 10 10 10 10 11 11 12 12 12 13 13 14 13 13 14 14 14 14 15 14 14
18 17 16 15 14 13 11 10 9 8 6 5 5 4 3 3 3 4 5 6 7 8 9 10 10 10 10 10 10 10 10 11 11 12 12 13 14 14 14 15 15 15 15 15 15 15 15 15 15
20 19 18 16 15 13 12 12 11 8 8 7 5 5 5 5 5 6 7 7 8 9 10 10 11 11 11 11 11 11 11 12 12 13 13 14 14 15 15 15 16 16 16 16 16 16 16 16 16
21 20 19 17 16 14 13 13 11 10 10 8 7 7 7 7 7 8 8 9 9 10 11 11 11 12 12 12 12 12 12 13 13 14 14 15 15 15 16 16 16 17 17 17 17 17 17 17 17
22 21 19 18 16 15 14 13 13 12 11 10 9 8 8 8 9 9 10 11 10 11 12 12 12 12 12 13 13 13 13 13 14 14 15 15 16 16 17 17 17 18 19 19 19 18 18 18 18
22 21 20 18 17 16 15 14 13 12 11 11 10 10 9 9 10 11 11 12 12 12 13 13 14 13 13 13 14 14 14 14 15 15 16 16 16 17 18 18 19 19 20 20 20 20 19 19 19
21 20 20 18 17 16 16 15 15 14 13 12 10 10 11 10 11 12 13 14 14 14 15 15 15 14 14 14 15 15 16 16 17 17 17 18 18 18 19 20 20 20 20 21 21 21 21 21 21
21 20 19 18 17 17 17 17 15 14 13 12 11 11 10 11 12 13 14 15 14 15 15 15 15 16 16 16 16 17 17 17 18 18 19 19 19 20 20 21 21 21 21 22 22 23 23 22 22
21 20 20 18 18 17 18 17 16 15 14 13 12 12 12 12 13 14 15 16 15 15 15 16 17 17 17 17 18 18 18 18 19 19 20 20 20 21 21 21 22 22 22 23 23 24 24 23 23
20 20 20 19 18 18 18 19 18 16 15 14 13 14 15 14 15 15 16 16 16 16 17 18 19 19 19 19 19 19 20 19 20 20 20 21 21 22 22 22 22 22 23 24 24 25 25 25 24
19 19 19 20 19 19 19 19 18 16 16 15 14 14 15 16 16 17 17 17 15 16 18 19 20 21 20 18 19 20 21 21 21 21 21 22 22 23 23 23 23 23 24 25 25 26 26 26 25
18 18 18 19 19 19 19 19 18 17 17 17 16 15 16 18 17 18 18 18 17 17 19 20 21 21 20 19 20 20 20 21 22 22 22 23 23 24 24 24 25 25 25 26 26 26 26 27 27
16 17 17 17 17 18 18 18 18 17 19 18 17 16 18 19 18 18 19 18 18 18 19 19 19 20 20 20 21 21 21 21 22 22 23 23 24 24 25 25 26 26 27 27 28 27 27 27 28
15 16 16 16 17 17 18 17 18 18 19 19 18 18 17 18 19 19 18 19 18 19 19 19 20 20 20 21 22 23 23 23 23 23 23 24 24 25 26 26 27 27 27 27 28 28 28 28 29
15 15 16 17 17 17 17 18 18 18 19 18 19 19 18 18 19 19 19 19 20 20 19 19 20 21 21 22 22 23 23 24 24 24 24 25 25 26 26 27 27 28 28 29 29 28 28 28 29
15 15 15 16 16 17 17 18 18 19 20 21 21 21 21 20 20 21 20 20 20 19 19 19 20 21 22 23 23 23 23 24 25 25 25 26 26 26 26 27 27 29 29 29 29 28 28 28 29
14 15 16 17 16 16 17 18 18 19 20 21 20 21 22 21 21 20 21 21 20 19 20 20 21 21 22 23 23 22 23 24 25 26 26 26 26 26 27 28 29 30 29 29 29 29 28 28 29
13 15 16 17 17 17 18 18 18 19 19 20 20 20 20 20 20 20 21 21 20 19 19 20 21 21 21 21 22 22 23 24 24 25 26 27 27 27 28 29 30 30 30 30 30 29 29 29 29
14 15 16 17 17 18 18 18 18 19 20 19 19 20 20 19 19 20 21 20 19 18 19 19 20 21 21 21 22 22 22 23 24 25 27 27 27 28 29 29 29 30 30 30 30 30 30 29 29
14 15 15 17 17 18 18 18 18 19 19 19 19 19 20 20 20 20 20 19 18 19 20 20 20 20 19 20 21 22 22 22 23 24 26 27 28 28 28 29 29 30 30 30 30 30 30 29 30
13 13 15 16 17 18 18 18 19 19 19 19 20 20 19 19 20 20 20 19 19 19 19 20 20 20 20 19 20 21 22 23 24 25 26 26 27 27 28 29 29 30 30 29 30 30 30 30 29
13 14 15 16 17 18 18 19 18 19 20 20 19 19 18 19 20 19 19 19 18 18 18 19 20 20 19 19 20 21 22 23 24 25 26 26 26 27 28 29 29 30 30 29 29 29 30 30 29
14 14 15 16 16 17 18 19 17 18 19 20 19 18 18 18 18 17 17 17 18 18 18 19 19 19 20 19 20 21 22 23 24 24 25 25 26 26 27 28 28 28 28 28 29 29 30 29 28
14 14 15 16 17 16 17 19 18 18 18 18 18 18 18 18 18 18 18 18 18 19 19 20 20 20 19 19 20 21 23 24 24 24 25 25 26 26 27 27 27 27 27 27 28 27 27 27 26
14 15 16 16 17 17 17 18 18 18 17 17 17 17 17 18 18 18 17 18 18 20 20 20 19 19 19 20 21 22 23 23 23 24 25 25 26 26 26 26 27 26 26 25 26 25 25 26 26
15 16 17 17 18 17 16 17 17 17 16 17 17 18 17 17 17 17 17 18 18 19 19 19 18 19 19 20 21 23 23 23 24 25 25 25 25 25 25 26 26 25 24 24 24 24 23 23 24
15 16 18 19 18 18 17 16 16 17 17 16 17 17 17 17 18 18 18 19 18 18 18 18 17 19 20 21 22 22 23 24 24 25 24 25 25 25 25 25 25 24 23 23 22 23 23 23 23
17 17 18 20 21 20 18 17 17 17 17 17 17 17 17 17 17 16 17 18 18 17 17 18 18 18 20 21 22 22 23 24 24 24 24 24 24 25 25 25 24 24 23 22 21 21 21 22 22
16 18 19 20 21 22 21 18 18 18 18 19 18 17 16 16 17 17 18 18 18 17 18 18 18 19 20 21 21 22 23 23 24 24 24 24 24 24 24 24 24 23 23 22 21 21 21 21 21
17 18 20 20 20 20 21 18 18 18 18 19 18 18 17 17 17 17 17 17 17 17 18 18 18 19 20 21 22 23 24 23 23 24 24 24 24 23 23 23 23 23 23 22 22 21 21 21 21
Wind_Direction
217 217 218 220 224 229 232 229 224 223 227 237 244 246 278 312 312 319 324 325 327 325 321 315 316 319 322 325 328 329 328 328 325 322 321 319 318 316 314 312 309 306 305 305 305 303 300 298 296
221 220 221 223 228 231 232 233 229 226 230 235 246 245 255 279 290 302 312 315 320 320 316 312 314 317 320 322 324 325 324 323 321 319 317 316 315 313 311 310 307 304 304 303 303 301 299 296 294
221 222 223 225 230 233 233 235 233 230 233 234 242 254 265 272 279 292 299 306 313 315 313 312 312 315 317 319 321 322 321 319 317 315 315 313 311 309 309 308 305 303 302 301 300 299 296 293 291
220 222 224 226 230 232 230 228 231 231 234 241 245 256 271 274 281 286 294 301 306 309 310 308 309 312 313 314 316 317 316 314 314 313 311 311 309 308 307 306 304 303 301 300 298 296 293 290 289
220 221 223 225 228 229 229 231 234 236 238 240 247 260 276 279 283 285 293 301 302 304 305 305 305 307 308 308 309 311 309 309 309 309 308 308 306 304 304 303 302 302 300 299 297 294 292 289 286
218 220 222 223 226 228 229 230 236 241 238 242 251 259 273 279 285 289 294 299 298 301 303 302 302 302 303 304 305 306 304 303 304 304 304 304 303 302 302 301 299 299 298 297 296 294 291 288 285
218 219 223 224 227 229 233 235 239 242 248 251 256 261 268 276 285 289 296 300 298 298 301 300 300 301 302 302 303 302 301 300 300 301 301 301 300 300 300 299 297 296 295 295 293 292 290 288 285
219 220 222 223 226 232 235 237 240 245 249 252 254 261 272 279 285 290 293 297 294 296 298 299 299 299 298 299 298 298 299 299 298 299 298 298 298 298 298 298 297 296 293 292 291 291 290 287 284
218 221 222 224 228 234 238 239 244 247 249 253 257 262 271 281 289 290 290 294 293 295 297 298 297 296 294 294 295 295 296 296 296 297 297 295 294 294 295 295 296 295 294 292 291 290 288 285 283
218 220 223 226 231 238 242 245 247 250 247 254 261 267 271 279 286 290 291 294 292 294 296 298 297 295 292 293 293 293 292 292 293 294 295 295 294 292 292 293 293 293 294 293 291 290 289 284 282
219 222 225 230 234 240 247 251 251 253 252 258 263 271 274 276 282 286 288 293 292 294 295 297 297 293 290 293 294 292 291 290 290 292 292 294 294 292 291 291 291 291 292 291 291 289 287 284 281
221 225 228 231 236 242 249 254 256 257 258 265 266 268 274 274 279 286 289 291 287 292 296 295 295 291 292 292 293 292 292 291 289 290 290 291 291 291 291 290 290 290 291 289 290 289 287 284 281
221 225 229 233 239 244 249 256 260 264 264 266 267 267 272 275 281 286 288 287 287 290 292 290 294 292 292 292 293 291 291 290 288 288 289 289 290 290 290 290 288 289 290 289 288 288 286 283 281
223 227 233 240 245 250 253 257 262 266 266 267 268 270 277 279 282 286 289 290 291 292 290 289 292 288 288 290 288 288 289 288 286 287 289 289 289 289 289 288 288 289 289 289 286 286 285 283 281
225 230 237 243 248 253 257 260 265 270 269 269 273 274 277 281 282 284 288 291 291 291 291 291 290 288 287 287 287 288 288 286 286 286 287 289 289 290 290 290 290 290 289 288 286 285 283 281 280
227 232 238 245 251 253 258 264 269 272 274 274 274 275 280 282 283 282 282 287 288 287 289 292 290 288 290 288 287 286 289 287 286 286 287 288 290 290 290 291 291 290 288 288 285 286 285 283 281
229 234 240 246 253 257 262 267 272 277 278 278 276 278 280 281 282 282 281 282 284 285 288 288 288 288 288 287 287 287 289 288 287 287 289 289 290 290 290 290 289 289 289 289 288 286 285 283 282
235 242 247 252 254 260 266 270 274 276 279 281 280 280 280 279 279 281 283 283 284 287 289 289 289 287 288 288 288 290 290 291 292 291 291 291 291 291 291 291 290 290 290 289 288 287 284 283 283
240 245 251 256 261 265 269 272 276 280 283 286 285 281 279 278 277 280 283 282 285 290 290 286 286 288 291 291 291 293 294 293 295 295 294 293 293 293 292 291 291 291 289 289 287 286 286 284 282
244 249 257 263 265 268 270 274 278 281 283 286 285 284 281 279 277 284 284 282 286 289 286 285 286 288 289 290 292 294 297 298 300 299 298 297 295 294 293 292 291 290 290 289 288 287 286 285 281
249 256 261 266 270 272 275 277 279 284 283 287 285 283 281 282 286 285 287 288 287 286 285 284 285 285 286 289 294 298 299 301 301 301 302 301 299 297 295 294 292 291 290 288 287 286 285 283 282
254 261 265 267 271 275 278 281 280 282 284 286 287 283 281 283 286 288 288 287 286 285 283 283 284 286 287 293 298 300 300 302 302 304 305 304 302 301 299 296 294 292 291 290 288 285 283 282 281
263 265 272 277 279 279 280 284 285 285 287 289 289 283 282 284 285 288 290 286 286 285 283 285 288 290 292 295 298 299 300 301 303 305 305 306 307 307 305 301 298 296 295 293 291 288 285 281 279
272 270 276 281 284 286 288 289 293 293 292 293 293 289 287 286 286 289 289 287 286 287 288 289 290 291 294 297 300 302 301 302 305 308 308 308 309 308 306 305 303 301 297 294 294 293 289 284 281
280 276 277 281 286 291 294 293 296 298 297 295 294 295 296 293 291 290 289 287 288 289 292 293 288 288 292 298 301 302 303 304 306 308 307 307 308 308 309 308 308 307 303 300 297 294 290 287 285
282 284 286 289 293 295 294 298 301 302 302 299 294 295 297 296 292 289 289 289 290 293 294 293 290 289 292 298 302 304 305 306 307 307 307 308 309 309 310 311 310 309 307 303 300 296 295 292 289
283 284 288 290 294 297 299 301 300 303 302 299 294 294 296 296 293 289 287 290 289 291 294 291 292 293 295 299 302 304 305 307 308 309 307 310 310 310 310 311 311 309 308 306 302 301 299 296 293
286 287 289 292 296 298 302 303 303 303 302 298 296 295 295 296 296 291 291 293 294 293 296 295 294 296 298 301 303 304 304 306 309 311 311 311 312 311 311 312 312 311 310 311 308 306 303 299 297
284 286 288 291 294 297 301 304 304 302 302 301 298 296 296 297 296 295 296 296 295 295 297 298 298 299 301 303 305 304 304 306 308 310 312 312 313 312 312 312 313 312 312 311 309 307 306 304 301
287 287 287 288 290 293 297 301 301 301 300 300 299 300 300 298 296 296 295 294 296 297 298 298 298 300 304 306 306 306 304 304 307 310 311 311 312 312 312 313 313 312 312 312 311 308 307 306 305
Height
5878 5880 5882 5884 5886 5887 5888 5890 5891 5892 5893 5894 5894 5894 5895 5895 5897 5899 5897 5896 5896 5896 5895 5895 5894 5894 5893 5892 5891 5890 5889 5888 5888 5888 5887 5887 5886 5886 5885 5884 5884 5883 5882 5882 5881 5880 5880 5879 5878
5876 5878 5881 5882 5883 5885 5887 5888 5889 5890 5891 5892 5893 5893 5894 5894 5895 5895 5894 5894 5894 5895 5894 5894 5893 5892 5891 5890 5889 5888 5888 5887 5886 5886 5885 5885 5884 5884 5883 5882 5881 5881 5880 5879 5879 5878 5877 5877 5876
5873 5876 5879 5880 5882 5884 5886 5887 5888 5888 5889 5890 5891 5892 5892 5893 5893 5894 5894 5894 5894 5894 5893 5893 5892 5891 5890 5889 5888 5887 5886 5885 5885 5884 5883 5883 5882 5881 5880 5880 5879 5878 5877 5877 5876 5875 5875 5874 5874
5871 5874 5877 5879 5880 5882 5884 5885 5886 5887 5888 5889 5890 5891 5891 5892 5892 5892 5892 5892 5892 5892 5892 5891 5891 5890 5889 5888 5887 5886 5885 5884 5883 5882 5882 5881 5880 5879 5878 5877 5876 5875 5874 5874 5873 5872 5872 5871 5871
5868 5871 5874 5876 5878 5880 5882 5884 5885 5886 5887 5888 5889 5890 5890 5891 5891 5891 5891 5891 5891 5891 5890 5890 5889 5888 5887 5886 5885 5884 5883 5882 5882 5881 5880 5878 5877 5876 5875 5874 5873 5872 5871 5870 5870 5869 5868 5868 5867
5866 5869 5872 5874 5877 5879 5881 5882 5884 5885 5885 5886 5888 5889 5889 5889 5889 5889 5889 5890 5889 5889 5889 5888 5887 5886 5885 5884 5883 5882 5881 5880 5879 5878 5877 5876 5875 5874 5872 5871 5870 5869 5868 5867 5866 5865 5865 5864 5863
5865 5867 5870 5873 5875 5877 5880 5881 5882 5883 5884 5885 5886 5887 5887 5887 5888 5887 5887 5888 5887 5887 5886 5886 5885 5884 5883 5882 5881 5880 5879 5878 5877 5876 5875 5873 5872 5871 5869 5868 5867 5866 5865 5864 5862 5862 5861 5860 5859
5862 5866 5868 5871 5873 5876 5878 5879 5880 5882 5883 5884 5885 5885 5885 5886 5886 5885 5885 5886 5885 5885 5884 5883 5882 5881 5880 5879 5878 5877 5876 5875 5874 5873 5872 5870 5869 5867 5866 5865 5863 5862 5861 5860 5859 5857 5856 5856 5855
5860 5865 5866 5869 5872 5874 5876 5877 5878 5880 5881 5882 5883 5883 5883 5883 5883 5883 5883 5883 5883 5882 5881 5880 5879 5878 5878 5877 5875 5874 5873 5872 5871 5869 5868 5867 5865 5864 5862 5861 5859 5858 5857 5855 5854 5853 5852 5851 5850
5858 5862 5865 5867 5870 5872 5873 5875 5876 5878 5879 5879 5880 5880 5880 5881 5881 5881 5880 5880 5880 5879 5878 5877 5876 5876 5875 5873 5872 5870 5869 5868 5867 5866 5864 5863 5862 5860 5858 5857 5855 5854 5852 5851 5849 5848 5847 5846 5845
5857 5860 5863 5865 5867 5869 5871 5872 5874 5875 5877 5877 5877 5877 5877 5878 5878 5878 5877 5877 5876 5875 5875 5874 5873 5872 5870 5869 5868 5866 5865 5864 5863 5861 5860 5859 5857 5855 5854 5852 5851 5849 5847 5846 5844 5843 5841 5840 5839
5856 5858 5860 5863 5865 5867 5868 5870 5871 5873 5874 5874 5873 5873 5874 5874 5874 5874 5874 5873 5873 5872 5871 5869 5868 5868 5866 5865 5863 5862 5861 5859 5858 5857 5855 5854 5852 5850 5849 5847 5846 5844 5842 5840 5839 5837 5836 5834 5833
5854 5857 5859 5861 5863 5864 5866 5868 5869 5870 5871 5871 5871 5871 5870 5871 5871 5871 5870 5870 5869 5868 5866 5865 5864 5863 5862 5860 5859 5858 5856 5855 5853 5852 5850 5849 5847 5845 5844 5842 5840 5838 5837 5835 5833 5831 5830 5828 5827
5853 5855 5857 5859 5861 5862 5864 5865 5866 5867 5867 5868 5868 5868 5868 5868 5868 5867 5866 5866 5865 5864 5862 5861 5860 5858 5857 5856 5854 5853 5851 5850 5848 5846 5845 5843 5842 5839 5837 5836 5834 5832 5831 5829 5827 5825 5823 5822 5821
5852 5854 5856 5858 5859 5860 5862 5863 5864 5864 5864 5864 5864 5864 5865 5865 5864 5864 5863 5862 5861 5859 5858 5857 5855 5854 5853 5851 5849 5848 5846 5844 5843 5841 5839 5838 5835 5833 5832 5830 5828 5826 5824 5822 5820 5818 5816 5815 5814
5851 5853 5855 5856 5857 5858 5861 5861 5861 5861 5861 5861 5861 5860 5860 5860 5860 5859 5858 5858 5857 5855 5854 5853 5851 5849 5848 5846 5845 5843 5841 5839 5837 5835 5833 5831 5830 5828 5825 5824 5821 5819 5817 5815 5813 5811 5809 5807 5806
5850 5852 5853 5855 5856 5856 5857 5858 5858 5858 5857 5857 5856 5855 5856 5855 5855 5854 5854 5853 5852 5851 5849 5848 5846 5844 5843 5841 5840 5838 5836 5834 5832 5830 5827 5825 5823 5821 5819 5817 5815 5812 5810 5808 5806 5804 5802 5800 5798
5849 5851 5852 5852 5853 5854 5854 5855 5855 5854 5854 5853 5853 5852 5851 5851 5850 5850 5849 5848 5847 5846 5845 5843 5841 5839 5837 5835 5834 5832 5831 5829 5826 5824 5822 5820 5817 5815 5813 5810 5807 5805 5802 5800 5798 5796 5794 5792 5791
5848 5849 5849 5850 5850 5851 5851 5851 5851 5851 5850 5849 5849 5848 5847 5847 5846 5845 5843 5843 5842 5841 5840 5838 5836 5834 5832 5831 5829 5827 5825 5823 5821 5818 5816 5813 5810 5808 5806 5803 5800 5798 5795 5793 5791 5788 5786 5785 5783
5846 5847 5847 5848 5848 5848 5848 5848 5848 5847 5846 5845 5844 5843 5842 5842 5841 5840 5838 5837 5837 5836 5835 5833 5830 5829 5828 5826 5824 5822 5820 5818 5815 5813 5810 5807 5804 5801 5798 5796 5793 5790 5788 5785 5783 5781 5779 5777 5775
5844 5845 5845 5845 5845 5844 5845 5845 5844 5843 5843 5842 5840 5838 5837 5837 5836 5835 5834 5833 5832 5830 5829 5828 5826 5825 5823 5821 5819 5817 5815 5813 5810 5807 5804 5801 5798 5795 5792 5789 5786 5783 5780 5778 5775 5773 5771 5769 5767
5843 5843 5842 5842 5842 5842 5842 5841 5841 5840 5838 5837 5835 5834 5833 5832 5831 5831 5830 5828 5827 5826 5824 5823 5821 5820 5818 5816 5815 5813 5810 5808 5805 5802 5798 5795 5791 5788 5785 5781 5778 5775 5772 5769 5767 5765 5763 5761 5759
5840 5840 5840 5839 5839 5838 5838 5837 5838 5835 5834 5833 5831 5829 5828 5828 5827 5826 5825 5824 5823 5821 5819 5818 5816 5815 5813 5811 5809 5807 5805 5802 5799 5796 5793 5789 5786 5782 5779 5775 5771 5768 5765 5762 5759 5757 5755 5753 5752
5838 5838 5837 5836 5836 5836 5835 5834 5833 5831 5829 5828 5827 5825 5824 5823 5822 5821 5820 5819 5819 5817 5815 5814 5812 5810 5809 5806 5804 5802 5800 5797 5794 5790 5787 5784 5781 5777 5773 5769 5765 5761 5758 5755 5752 5750 5748 5746 5744
5836 5835 5835 5833 5832 5832 5831 5830 5830 5828 5826 5824 5823 5822 5820 5819 5818 5817 5816 5815 5814 5812 5810 5808 5806 5805 5804 5802 5799 5797 5794 5791 5788 5785 5782 5779 5775 5771 5767 5763 5759 5755 5752 5749 5746 5743 5741 5739 5737
5832 5832 5832 5830 5829 5828 5827 5826 5826 5824 5822 5820 5819 5817 5816 5815 5814 5812 5811 5810 5809 5807 5806 5804 5802 5801 5799 5797 5795 5792 5789 5786 5783 5780 5777 5773 5770 5766 5762 5758 5754 5750 5746 5743 5740 5737 5735 5733 5731
5829 5828 5828 5827 5825 5824 5824 5823 5823 5820 5819 5817 5815 5814 5812 5811 5810 5808 5806 5805 5804 5803 5801 5800 5798 5797 5795 5792 5790 5787 5784 5781 5778 5774 5771 5768 5765 5761 5757 5753 5749 5745 5742 5738 5735 5732 5730 5727 5725
5826 5825 5824 5823 5821 5820 5820 5819 5819 5817 5815 5813 5811 5810 5808 5807 5805 5803 5802 5801 5800 5798 5797 5795 5794 5792 5790 5787 5785 5782 5779 5776 5773 5769 5766 5763 5759 5756 5752 5748 5744 5740 5737 5734 5730 5727 5724 5722 5719
5823 5822 5820 5819 5817 5816 5815 5817 5815 5813 5811 5809 5807 5805 5804 5802 5800 5799 5798 5797 5795 5794 5793 5791 5789 5787 5785 5782 5780 5777 5774 5771 5768 5765 5761 5758 5754 5750 5746 5743 5739 5736 5732 5729 5725 5722 5720 5717 5714
5819 5818 5816 5815 5814 5812 5811 5814 5811 5809 5806 5804 5803 5801 5799 5798 5796 5795 5794 5792 5791 5789 5788 5786 5784 5782 5780 5777 5775 5771 5769 5766 5763 5759 5756 5752 5749 5745 5741 5738 5734 5731 5728 5724 5721 5718 5715 5712 5710